Tracking 22438 objects as of 24-Feb-2021
HD Live streaming from Space Station
objects crossing your sky now

DELTA 1 DEB

Track DELTA 1 DEB now!
10-day predictions


NORAD ID: 26833
Int'l Code: 1975-052KM
Perigee: 1,090.7 km
Apogee: 1,661.7 km
Inclination: 99.7 °
Period: 113.1 minutes
Semi major axis: 7747 km
RCS: 0.01 m2 (small)
Launch date: June 12, 1975
Source: United States (US)
Launch site: AIR FORCE WESTERN TEST RANGE (AFWTR)

Note: This is SATELLITE DEBRIS
aabbcc
Your satellite tracking list
Your tracking list is empty




NASA's NSSDC Master Catalog

Two Line Element Set (TLE):
1 26833U 75052KM  21055.47854546  .00000021  00000-0  20781-3 0  9991
2 26833  99.6702 242.4756 0368526 213.3755 174.5508 12.73162492402882
Source of the keplerian elements: AFSPC